Weather History for KHCD - December, 2012

Change the Weather History Date:

Monday, December 3, 2012

  Actual Average Record
Temperature  
Mean Temperature 47 °F -  
Max Temperature 54 °F 28 °F 60 °F (1982)
Min Temperature 40 °F 13 °F -21 °F (1985)
Degree Days  
Heating Degree Days 18    
Moisture  
Dew Point 41 °F    
Average Humidity 82    
Maximum Humidity 100    
Minimum Humidity 61    
Precipitation  
Precipitation 0.00 in - - ()
Sea Level Pressure  
Sea Level Pressure 29.70 in    
Wind  
Wind Speed 12 mph (SW)    
Max Wind Speed 26 mph    
Max Gust Speed 36 mph    
Visibility 7 miles    
Events Fog    
Averages and records for this station are not official NWS values.
T = Trace of Precipitation, MM = Missing Value Source: NWS Daily Summary

Daily Weather History Graph

Daily Weather History Graph

Search for Another Location

Airport or City:

Trip Planner

Search our weather history database for the weather conditions in past years. The results will help you decide how hot, cold, wet, or windy it might be!

Date:

Astronomy

Dec. 03, 2012 Rise Set
Actual Time 7:37 AM CST 4:37 PM CST
Civil Twilight 7:04 AM CST 5:10 PM CST
Nautical Twilight 6:27 AM CST 5:46 PM CST
Astronomical Twilight 5:52 AM CST 6:22 PM CST
Moon 9:31 PM CST 10:55 AM CST
Length of Visible Light 10h 05m
Length of Day
8h 59m
Waning Gibbous, 78% of the Moon is Illuminated
Dec 3
Waning Gibbous
Dec 6
Last Quarter
Dec 13
New
Dec 19
First Quarter
Dec 28
Full

Hourly Weather History & Observations

Time (CST) Temp. Windchill Dew Point Humidity Pressure Visibility Wind Dir Wind Speed Gust Speed Precip Events Conditions
12:08 AM 43.9 °F 39.3 °F 41.2 °F 90% 29.72 in 7.0 mi SSE 8.1 mph - N/A   Clear
12:29 AM 43.3 °F 38.1 °F 40.6 °F 90% 29.71 in 7.0 mi SSE 9.2 mph 16.1 mph N/A   Clear
12:48 AM 42.8 °F 37.0 °F 40.3 °F 91% 29.71 in 7.0 mi SE 10.4 mph - N/A   Clear
1:08 AM 41.5 °F 36.4 °F 39.6 °F 93% 29.70 in 5.0 mi SSE 8.1 mph - N/A   Clear
1:29 AM 41.5 °F 35.0 °F 40.1 °F 95% 29.69 in 5.0 mi SSE 11.5 mph - N/A   Clear
1:49 AM 40.6 °F 34.3 °F 39.7 °F 97% 29.70 in 4.0 mi SSE 10.4 mph - N/A   Scattered Clouds
1:58 AM 41.5 °F 36.4 °F 41.0 °F 98% 29.69 in 4.0 mi SSE 8.1 mph - N/A   Mostly Cloudy
2:30 AM 41.0 °F 34.7 °F 41.0 °F 100% 29.69 in 3.0 mi SSE 10.4 mph 17.3 mph N/A   Overcast
2:50 AM 41.0 °F 35.2 °F 41.0 °F 100% 29.67 in 3.0 mi SSE 9.2 mph - N/A   Overcast
3:10 AM 42.8 °F 36.6 °F 41.0 °F 93% 29.66 in 3.0 mi SSE 11.5 mph - N/A   Overcast
3:30 AM 42.8 °F 36.2 °F 42.8 °F 100% 29.64 in 2.5 mi SE 12.7 mph 18.4 mph N/A   Overcast
3:50 AM 42.8 °F 37.5 °F 42.8 °F 100% 29.63 in 1.2 mi SSE 9.2 mph - N/A   Overcast
4:10 AM 44.6 °F 38.8 °F 44.6 °F 100% 29.62 in 1.0 mi SE 11.5 mph 17.3 mph N/A   Overcast
4:30 AM 44.6 °F 40.7 °F 44.6 °F 100% 29.62 in 0.8 mi SSE 6.9 mph - N/A   Overcast
4:50 AM 46.4 °F 41.9 °F 46.4 °F 100% 29.61 in 0.8 mi SSE 9.2 mph - N/A   Overcast
5:10 AM 46.4 °F 42.4 °F 46.4 °F 100% 29.60 in 0.8 mi SSE 8.1 mph - N/A   Overcast
5:30 AM 48.2 °F - 48.2 °F 100% 29.58 in 1.0 mi SSE 9.2 mph 18.4 mph N/A   Overcast
5:50 AM 48.2 °F - 48.2 °F 100% 29.58 in 2.0 mi South 12.7 mph 18.4 mph N/A   Overcast
6:10 AM 48.2 °F - 48.2 °F 100% 29.57 in 2.5 mi South 12.7 mph 17.3 mph N/A   Overcast
6:30 AM 48.2 °F - 48.2 °F 100% 29.57 in 3.0 mi South 12.7 mph 21.9 mph N/A   Overcast
7:10 AM 48.2 °F - 48.2 °F 100% 29.55 in 4.0 mi South 16.1 mph 21.9 mph N/A   Overcast
7:30 AM 48.2 °F - 48.2 °F 100% 29.56 in 4.0 mi South 12.7 mph 19.6 mph N/A   Overcast
7:50 AM 48.2 °F - 48.2 °F 100% 29.55 in 2.0 mi South 13.8 mph - N/A   Overcast
8:10 AM 50.0 °F - 50.0 °F 100% 29.55 in 0.8 mi South 10.4 mph 19.6 mph N/A   Overcast
8:28 AM 50.4 °F - 50.4 °F 100% 29.55 in 0.5 mi South 11.5 mph - N/A Fog Fog
9:08 AM 51.8 °F - 51.8 °F 100% 29.56 in 0.8 mi SSW 9.2 mph - N/A   Overcast
9:28 AM 51.8 °F - 51.8 °F 100% 29.56 in 2.0 mi SSW 15.0 mph 23.0 mph N/A   Overcast
9:48 AM 51.8 °F - 51.8 °F 100% 29.55 in 3.0 mi SSW 11.5 mph 17.3 mph N/A   Overcast
10:08 AM 54.1 °F - 54.1 °F 100% 29.55 in 4.0 mi SW 12.7 mph 18.4 mph N/A   Overcast
10:28 AM 54.1 °F - 53.4 °F 97% 29.56 in 5.0 mi SW 13.8 mph 20.7 mph N/A   Overcast
10:36 AM 54.1 °F - 52.9 °F 95% 29.56 in 5.0 mi SW 13.8 mph 17.3 mph N/A   Overcast
11:10 AM 53.6 °F - 48.2 °F 82% 29.56 in 7.0 mi WSW 16.1 mph 24.2 mph N/A   Scattered Clouds
11:30 AM 53.6 °F - 48.2 °F 82% 29.57 in 10.0 mi West 20.7 mph 25.3 mph N/A   Clear
11:50 AM 53.6 °F - 46.4 °F 77% 29.58 in 10.0 mi West 21.9 mph 31.1 mph N/A   Clear
12:00 PM 54.1 °F - 44.8 °F 71% 29.58 in 10.0 mi West 24.2 mph 32.2 mph N/A   Clear
12:09 PM 54.1 °F - 44.6 °F 70% 29.58 in 10.0 mi WNW 26.5 mph 34.5 mph N/A   Clear
12:28 PM 54.1 °F - 44.6 °F 70% 29.58 in 10.0 mi WNW 25.3 mph 35.7 mph N/A   Clear
12:49 PM 54.1 °F - 44.6 °F 70% 29.59 in 10.0 mi WNW 21.9 mph 31.1 mph N/A   Clear
1:08 PM 54.1 °F - 44.8 °F 71% 29.60 in 10.0 mi WNW 16.1 mph 28.8 mph N/A   Clear
1:29 PM 54.1 °F - 43.7 °F 68% 29.61 in 10.0 mi WNW 13.8 mph 26.5 mph N/A   Scattered Clouds
1:48 PM 54.1 °F - 42.8 °F 66% 29.63 in 10.0 mi WNW 17.3 mph 25.3 mph N/A   Mostly Cloudy
2:09 PM 54.1 °F - 43.0 °F 66% 29.65 in 10.0 mi WNW 21.9 mph 29.9 mph N/A   Mostly Cloudy
2:28 PM 53.8 °F - 45.1 °F 73% 29.66 in 10.0 mi WNW 20.7 mph 27.6 mph N/A   Scattered Clouds
2:49 PM 54.1 °F - 45.5 °F 73% 29.67 in 10.0 mi WNW 23.0 mph 27.6 mph N/A   Scattered Clouds
3:09 PM 51.8 °F - 41.9 °F 69% 29.70 in 10.0 mi WNW 17.3 mph 26.5 mph N/A   Clear
3:28 PM 51.8 °F - 40.5 °F 65% 29.72 in 10.0 mi West 16.1 mph 27.6 mph N/A   Clear
3:49 PM 51.4 °F - 38.3 °F 61% 29.73 in 10.0 mi WNW 20.7 mph 26.5 mph N/A   Clear
4:09 PM 49.1 °F - 36.9 °F 63% 29.75 in 10.0 mi WNW 15.0 mph 26.5 mph N/A   Clear
4:29 PM 49.1 °F - 37.6 °F 64% 29.76 in 10.0 mi West 15.0 mph 19.6 mph N/A   Clear
4:49 PM 47.1 °F - 36.7 °F 67% 29.78 in 10.0 mi West 12.7 mph - N/A   Clear
5:09 PM 46.0 °F 41.0 °F 36.1 °F 68% 29.79 in 10.0 mi West 10.4 mph - N/A   Clear
5:29 PM 41.5 °F 37.8 °F 33.8 °F 74% 29.80 in 10.0 mi WSW 5.8 mph - N/A   Clear
5:49 PM 40.1 °F 35.3 °F 32.7 °F 75% 29.81 in 10.0 mi WSW 6.9 mph - N/A   Clear
6:08 PM 40.3 °F 37.1 °F 32.5 °F 74% 29.82 in 10.0 mi WSW 4.6 mph - N/A   Clear
6:28 PM 41.5 °F 37.1 °F 33.6 °F 73% 29.83 in 10.0 mi WSW 6.9 mph - N/A   Clear
6:49 PM 40.5 °F 33.6 °F 32.9 °F 74% 29.84 in 10.0 mi WSW 11.5 mph - N/A   Clear
7:09 PM 40.3 °F 33.0 °F 32.5 °F 74% 29.85 in 10.0 mi West 12.7 mph - N/A   Clear
7:28 PM 41.5 °F 33.8 °F 32.4 °F 70% 29.86 in 10.0 mi West 15.0 mph - N/A   Clear
7:49 PM 41.9 °F 35.0 °F 31.8 °F 67% 29.86 in 10.0 mi West 12.7 mph - N/A   Clear
8:08 PM 41.5 °F 35.4 °F 31.5 °F 67% 29.87 in 10.0 mi West 10.4 mph - N/A   Clear
8:28 PM 40.3 °F 33.0 °F 30.9 °F 69% 29.87 in 10.0 mi West 12.7 mph - N/A   Clear
8:48 PM 40.3 °F 32.6 °F 30.7 °F 69% 29.88 in 10.0 mi West 13.8 mph - N/A   Clear
9:08 PM 41.5 °F 35.0 °F 30.9 °F 66% 29.89 in 10.0 mi WSW 11.5 mph - N/A   Clear
9:29 PM 41.9 °F 35.9 °F 29.8 °F 62% 29.89 in 10.0 mi WSW 10.4 mph - N/A   Clear
9:48 PM 41.4 °F 35.7 °F 29.8 °F 64% 29.90 in 10.0 mi WSW 9.2 mph - N/A   Clear
10:09 PM 40.3 °F 34.4 °F 29.3 °F 65% 29.92 in 10.0 mi WSW 9.2 mph - N/A   Clear
10:29 PM 40.6 °F 33.8 °F 29.1 °F 64% 29.92 in 10.0 mi WSW 11.5 mph 16.1 mph N/A   Clear
10:48 PM 40.5 °F 32.1 °F 29.3 °F 64% 29.92 in 10.0 mi West 16.1 mph 20.7 mph N/A   Clear
11:09 PM 41.5 °F 33.5 °F 29.5 °F 62% 29.93 in 10.0 mi West 16.1 mph - N/A   Clear
11:28 PM 40.3 °F 33.0 °F 29.3 °F 65% 29.93 in 10.0 mi West 12.7 mph - N/A   Clear